Printer-friendly version
Follow the MPC on Twitter Follow the MPC on Facebook The MPC blog
Minor Planet Center

MPEC 2004-K37 : COMET C/2002 T7 (LINEAR)

The following Minor Planet Electronic Circular may be linked-to from your own Web pages, but must not otherwise be redistributed electronically.

A form allowing access to any MPEC is at the bottom of this page.


Read MPEC 2004-K36 Read MPEC 2004-K38


M.P.E.C. 2004-K37                                Issued 2004 May 22, 18:34 UT

     The Minor Planet Electronic Circulars contain information on unusual
         minor planets and routine data on comets.  They are published
   on behalf of Commission 20 of the International Astronomical Union by the
          Minor Planet Center, Smithsonian Astrophysical Observatory,
                          Cambridge, MA 02138, U.S.A.

         Supported in part by the Steven and Michele Kirsch Foundation
             Prepared using the Tamkin Foundation Computer Network

                              MPC@CFA.HARVARD.EDU
          URL http://cfa-www.harvard.edu/iau/mpc.html  ISSN 1523-6714

                           COMET C/2002 T7 (LINEAR)

Observations:
    CK02T070  C2004 05 07.81363 00 37 00.70 -03 36 49.7                 EK037427
    CK02T070  C2004 05 07.81791 00 37 02.45 -03 37 04.6          12.1 T EK037427
    CK02T070  C2004 05 19.25529 04 34 01.79 -19 25 18.3          10.4 N EK037467
    CK02T070  C2004 05 19.26850 04 34 32.06 -19 26 01.1          10.4 N EK037467
    CK02T070  C2004 05 19.27085 04 34 37.51 -19 26 08.8          10.7 N EK037467
    CK02T070  C2004 05 21.32038 05 51 02.64 -20 09 25.2          10.7 N EK037467
    CK02T070  C2004 05 21.32528 05 51 12.93 -20 09 21.8          10.6 N EK037467
    CK02T070  C2004 05 21.33730 05 51 38.09 -20 09 13.1          10.7 N EK037467

Observer details:
427 Stockport.  Observer M. Mattiazzo.  0.28-m f/3.3 Schmidt-Cassegrain + CCD.
467 Auckland Observatory.  Observer G. W. Christie.  0.35-m f/11
    Schmidt-Cassegrain + CCD.

Orbital elements:
    C/2002 T7 (LINEAR)
Epoch 2004 Apr. 25.0 TT = JDT 2453120.5
T 2004 Apr. 23.06135 TT                                 MPC
q   0.6145992            (2000.0)            P               Q
z  -0.0008467      Peri.  157.73631     +0.43442352     -0.83758848
 +/-0.0000002      Node    94.85879     -0.86836496     -0.29180664
e   1.0005204      Incl.  160.58322     -0.23920391     -0.46183809
From 3566 observations 2002 Oct. 12-2004 May 21, mean residual 0".51.

     The "original" and "future" barycentric values of 1/a are +0.000010
and -0.000629 (+/- 0.000001) AU^-1, respectively.  A somewhat comparable
nongravitational solution, but satisfying 3750 observations with mean
residual 0".49, gives A1 = -0.15 +/- 0.02, A2 = +0.24 +/- 0.01.

Brian G. Marsden             (C) Copyright 2004 MPC           M.P.E.C. 2004-K37

Read MPEC 2004-K36 Read MPEC 2004-K38


MPEC number:

Enter an MPEC number in one of the following forms:

  • 1997-B01 (the full form)
  • J97B01 (the packed version of the full form)
  • B01 (the abbreviated form)

Valid HTML 4.01!